カタログに戻る

TURKSAT 5A

運用中通信GEO
NORAD 47306·PAYLOAD·🇹🇷 Turkey

打ち上げ Jan 8, 2021 から Cape Canaveral Space Force Station

Loading…

TLE

最新Source: Space-Track

元期: Sep 14, 2026, 13:57 UTC

1 47306U 21001A   26257.58125437  .00000146  00000-0  00000-0 0  9992
2 47306   0.0129 113.6802 0000215 308.5548 171.5044  1.00271818 20862

AllMySatでTURKSAT 5Aをリアルタイム追跡

Download on the App Store